This demonstration page uses our WeatherBlox Daily Observations layout. Learn more.

Left ArrowRight Arrow

39.95238, -75.16362

Hourly Observations for December 8, 2022

Temp ( °F °C ) Dew Point ( °F °C ) Humidity (%) Winds ( mph kmh ) Pressure ( in mb ) Visibility ( mi km ) Precip ( " mm )
12:36 am 00:36 Mostly Clear with Mist and Fog 50 10 49 9.4 96 96 WSW 3 6 30.17 1022 6 10 0.00 0.00
12:54 am 00:54 Mostly Clear with Patchy Fog 49 9.4 48 8.9 97 97 W 3 6 30.17 1022 6 10 0.00 0.00
1:14 am 01:14 Mostly Clear with Patchy Fog 48 8.9 47 8.3 96 96 W 3 6 30.18 1022 6 10 0.00 0.00
1:54 am 01:54 Partly Cloudy with Mist and Fog 51 10.6 49 9.4 92 92 WNW 6 9 30.18 1022 6 10 0.00 0.00
2:54 am 02:54 Mostly Cloudy with Patchy Fog 47 8.3 46 7.8 97 97 W 5 7 30.20 1023 5 8 0.00 0.00
3:33 am 03:33 Partly Cloudy 50 10 48 8.9 93 93 WNW 7 11 30.20 1023 7 11 0.00 0.00
3:46 am 03:46 Mostly Cloudy 50 10 48 8.9 93 93 NW 6 9 30.20 1023 10 16 0.00 0.00
3:54 am 03:54 Mostly Cloudy 50 10 48 8.9 93 93 WNW 8 13 30.19 1023 10 16 0.00 0.00
4:54 am 04:54 Mostly Cloudy 49 9.4 47 8.3 93 93 Calm 30.20 1023 10 16 0.00 0.00
5:54 am 05:54 Mostly Cloudy 49 9.4 47 8.3 93 93 NNW 3 6 30.22 1023 10 16 0.00 0.00
6:54 am 06:54 Mostly Cloudy 50 10 45 7.2 83 83 NNW 5 7 30.24 1024 10 16 0.00 0.00
7:54 am 07:54 Mostly Cloudy 51 10.6 44 6.7 77 77 N 10 17 30.26 1025 10 16 0.00 0.00
8:54 am 08:54 Mostly Cloudy 51 10.6 40 4.4 65 65 N 12 19 30.25 1024 10 16 0.00 0.00
9:54 am 09:54 Mostly Cloudy 53 11.7 41 5 63 63 N 7 11 30.26 1025 10 16 0.00 0.00
10:54 am 10:54 Mostly Cloudy 54 12.2 40 4.4 59 59 NNE 10 17 30.25 1025 10 16 0.00 0.00
11:54 am 11:54 Mostly Cloudy 56 13.3 39 3.9 53 53 N 10 17 30.26 1025 10 16 0.00 0.00
12:54 pm 12:54 Cloudy 54 12.2 39 3.9 57 57 NNW 13 20 30.24 1024 10 16 0.00 0.00
1:54 pm 13:54 Cloudy 53 11.7 39 3.9 59 59 N 14 22 30.23 1024 10 16 0.00 0.00
2:54 pm 14:54 Cloudy 51 10.6 39 3.9 63 63 N 15 24 30.22 1024 10 16 0.00 0.00
3:54 pm 15:54 Mostly Cloudy 50 10 35 1.7 56 56 NNW 12 19 30.23 1024 10 16 0.00 0.00
4:54 pm 16:54 Cloudy 49 9.4 34 1.1 56 56 NNW 10 17 30.24 1024 10 16 0.00 0.00
5:54 pm 17:54 Cloudy 49 9.4 33 0.6 54 54 NNW 12 19 30.26 1025 10 16 0.00 0.00
6:54 pm 18:54 Cloudy 48 8.9 32 0 54 54 NNW 14 22 30.26 1025 10 16 0.00 0.00
7:54 pm 19:54 Cloudy 48 8.9 30 -1.1 49 49 NNW 16 26 30.25 1025 10 16 0.00 0.00
8:54 pm 20:54 Cloudy 47 8.3 30 -1.1 51 51 N 12 19 30.26 1025 10 16 0.00 0.00
9:54 pm 21:54 Cloudy 46 7.8 30 -1.1 53 53 N 10 17 30.27 1025 10 16 0.00 0.00
10:54 pm 22:54 Mostly Cloudy 45 7.2 30 -1.1 55 55 N 7 11 30.27 1025 10 16 0.00 0.00
11:54 pm 23:54 Mostly Cloudy 44 6.7 31 -0.6 60 60 NNW 8 13 30.27 1025 10 16 0.00 0.00

Powered by AerisWeather